Probability
0 0 0 0 0 0 0 0 0 0 0 0 0 0 0 0 0 0 0 0 0 0 0 0 0 0 0 0 0 0 0 0 0 0 0 0 0 0
0 0 0 0 0 0 0 0 0 0 0 0 0 0 0 0 0 0 0 0 0 0 0 0 0 0 0 0 0 0 0 0 0 0 0 0 0 0
0 0 0 0 0 0 0 0 0 0 0 0 0 0 0 0 0 0 0 0 0 0 0 0 0 0 0 0 0 0 0 0 0 0 0 0 0 0
0 0 0 0 0 0 0 0 0 0 0 0 0 0 0 0 0 0 0 0 0 0 0 0 0 0 0 0 0 0 0 0 0 0 0 0 0 0
0 0 0 0 0 0 0 0 0 0 0 0 0 0 0 0 0 0 0 0 0 0 0 0 0 0 0 0 0 0 0 0 0 0 0 0 0 0
0 0 0 0 0 0 0 0 0 0 0 0 0 0 0 0 0 0 0 0 0 0 0 0 0 0 0 0 0 0 0 0 0 0 0 0 0 0
0 0 0 0 0 0 0 0 0 0 0 0 0 0 0 0 0 0 0 0 0 0 0 0 0 0 0 0 0 0 0 0 0 0 0 0 0 0
0 0 0 0 0 0 0 0 0 0 0 0 0 0 0 0 0 0 0 0 0 0 0 0 0 0 0 0 0 0 0 0 0 0 0 0 0 0
0 0 0 0 0 0 0 0 0 0 0 0 0 0 0 0 0 0 0 0 0 0 0 0 0 0 0 0 0 0 0 0 0 0 0 0 0 0
0 0 0 0 0 0 0 0 0 0 0 0 0 0 0 0 0 0 0 0 0 0 0 0 0 0 0 0 0 0 0 0 0 0 0 0 0 0
0 0 0 0 0 0 0 0 0 0 0 0 0 0 0 0 0 0 0 0 0 0 0 0 0 0 0 0 0 0 0 0 0 0 0 0 0 0
0 0 0 0 0 0 0 0 0 0 0 0 0 0 0 0 0 0 0 0 0 0 0 0 0 0 0 0 0 0 0 0 0 0 0 0 0 0
0 0 0 0 0 0 0 0 0 0 0 0 0 0 0 0 0 0 0 0 0 0 0 0 0 0 0 0 0 0 0 0 0 0 0 0 0 0
0 0 0 0 0 0 0 0 0 0 0 0 0 0 0 0 0 0 0 0 0 0 0 0 0 0 0 0 0 0 0 0 0 0 0 0 0 0
0 0 0 0 0 0 0 0 0 0 0 0 0 0 0 0 0 0 0 0 0 0 0 0 0 0 0 0 0 0 0 0 0 0 0 0 0 0
0 0 0 0 0 0 0 0 0 0 0 0 0 0 0 0 0 0 0 0 0 0 0 0 0 0 0 0 0 0 0 0 0 0 0 0 0 0
0 0 0 0 0 0 0 0 0 0 0 0 0 0 0 0 0 0 0 0 0 0 0 0 0 0 0 0 0 0 0 0 0 0 0 0 0 0
0 0 0 0 0 0 0 0 0 0 0 0 0 0 0 0 0 0 0 0 0 0 0 0 0 0 0 0 0 0 0 0 0 0 0 0 0 0
0 0 0 0 0 0 0 0 0 0 0 0 0 0 0 0 0 0 0 0 0 0 0 0 0 0 0 0 0 0 0 0 0 0 0 0 0 0
0 0 0 0 0 0 0 0 0 0 0 0 0 0 0 0 0 0 0 0 0 0 0 0 0 0 0 0 0 0 0 0 0 0 0 0 0 0
0 0 0 0 0 0 0 0 0 0 0 0 0 0 0 0 0 0 0 0 0 0 0 0 0 0 0 0 0 0 0 0 0 0 0 0 0 0
0 0 0 0 0 0 0 0 0 0 0 0 0 0 0 0 0 0 0 0 0 0 0 0 0 0 0 0 0 0 0 0 0 0 0 0 0 0
0 0 0 0 0 0 0 0 0 0 0 0 0 0 0 0 0 0 0 0 0 0 0 0 0 0 0 0 0 0 0 0 0 0 0 0 0 0
Wind_Speed
5 6 6 5 6 7 8 9 10 14 14 11 7 7 10 11 15 15 17 22 27 29 30 31 31 32 32 32 32 33 34 34 35 36 36 36 37 37
4 6 7 6 7 7 8 9 10 13 15 9 11 13 14 13 18 18 18 25 27 28 29 30 31 32 33 34 34 35 34 34 35 35 36 36 37 37
5 6 8 9 8 8 8 9 9 11 15 15 12 14 18 18 16 16 15 16 16 26 28 30 32 33 33 34 34 34 34 34 34 34 35 35 36 36
6 7 8 7 9 9 8 9 10 11 14 19 15 14 18 18 18 17 16 15 16 23 28 30 31 32 32 33 33 33 34 34 34 34 34 35 35 35
7 8 9 10 10 9 10 11 10 11 13 16 17 15 14 14 17 17 18 15 15 17 24 26 28 30 32 32 33 34 33 33 33 33 33 33 34 34
8 9 10 10 11 12 11 13 13 14 15 15 15 15 14 16 16 15 14 14 14 14 19 21 24 28 29 31 32 32 33 33 33 33 33 33 33 34
9 10 10 12 15 14 12 14 15 14 14 14 15 15 15 15 15 14 15 15 15 14 15 15 15 15 18 23 27 29 30 31 31 32 33 33 33 33
10 10 11 12 14 18 20 21 21 18 17 15 14 16 19 18 15 14 15 16 17 12 14 16 15 16 15 15 23 30 31 32 33 33 33 34 34 34
10 11 10 10 16 13 17 21 21 23 22 18 18 18 19 17 18 19 17 18 18 15 16 18 16 17 15 16 28 31 32 32 32 32 32 33 33 34
11 12 12 13 13 16 17 17 16 16 17 15 15 17 18 18 18 18 18 18 18 15 15 17 17 17 16 15 25 30 31 30 30 30 31 31 32 33
11 12 13 13 18 22 18 16 17 15 16 19 23 24 27 27 21 13 14 14 16 15 13 13 14 16 17 16 17 22 24 26 28 30 31 31 32 32
11 11 14 16 20 23 17 16 17 15 16 17 17 18 17 18 19 14 11 12 14 12 9 9 12 13 13 10 11 13 16 23 27 28 28 28 29 20
11 10 10 18 22 24 20 15 17 18 16 15 14 13 12 11 11 11 10 11 13 13 12 11 12 12 12 15 16 15 14 13 14 16 22 26 28 24
11 10 12 21 23 22 17 17 22 19 11 11 11 12 11 11 11 12 14 14 14 17 17 16 13 14 15 17 17 14 14 14 14 14 13 20 23 28
11 17 20 21 19 15 16 20 17 10 9 10 11 12 11 12 13 12 13 13 15 15 15 16 15 14 14 16 17 17 17 16 12 12 13 15 15 15
11 15 19 17 14 15 15 12 9 9 10 11 12 12 12 12 11 11 12 12 12 13 12 13 14 16 15 17 16 17 15 13 14 15 16 16 15 14
14 11 9 9 9 9 10 10 10 10 10 10 11 12 12 12 12 11 10 11 12 14 14 12 11 12 14 16 16 15 14 14 14 15 16 17 15 12
13 9 8 9 9 10 11 12 11 11 10 11 11 11 11 12 12 12 11 11 12 13 13 13 13 13 12 9 12 13 12 13 14 15 15 15 14 12
8 8 8 9 10 10 11 11 12 12 11 11 11 11 11 12 12 12 12 11 12 12 13 12 12 12 14 15 10 8 12 15 14 14 13 14 13 12
7 8 9 9 10 10 11 11 12 12 11 11 11 11 11 11 12 12 12 13 13 13 13 11 11 11 11 12 12 15 16 14 13 13 14 13 12 13
8 8 9 10 10 11 11 11 12 12 12 12 12 12 11 11 12 12 12 17 15 12 13 12 12 17 12 10 11 12 11 12 14 12 12 12 12 10
9 9 10 10 11 11 11 11 12 12 13 12 12 12 11 11 13 14 13 13 12 12 13 12 12 11 10 10 13 14 14 14 13 14 12 14 10 9
9 10 10 11 11 10 11 12 14 12 12 12 12 12 12 12 12 12 13 12 11 12 12 12 11 10 10 10 11 12 15 15 12 11 11 19 22 20
Wind_Direction
291 291 288 291 290 288 286 284 289 296 298 299 292 298 299 297 295 291 290 291 293 293 292 293 293 293 292 291 290 289 287 285 283 281 279 276 274 271
304 299 301 297 295 289 285 283 280 284 287 292 298 299 302 296 291 290 290 292 290 290 290 291 291 291 291 290 289 286 284 282 279 277 275 273 270 267
302 303 303 303 297 295 293 288 284 284 287 293 297 301 299 296 296 295 295 294 291 291 292 292 291 291 289 288 287 286 284 282 279 277 275 273 271 269
303 303 304 304 300 297 295 292 290 289 289 295 299 299 298 299 298 299 299 294 291 293 293 292 291 290 289 288 286 285 283 281 278 277 275 273 271 270
294 298 302 302 300 300 298 294 292 291 289 291 294 297 297 299 302 299 297 296 296 295 294 292 290 288 287 286 285 285 284 282 280 278 276 274 272 270
287 290 296 298 300 301 296 295 295 295 293 291 293 297 299 302 302 302 303 302 299 298 292 289 287 288 286 285 284 283 281 280 279 277 275 272 270 267
291 292 293 296 297 297 298 299 301 297 294 293 295 299 301 304 304 306 303 303 298 297 295 293 294 289 288 285 283 280 279 278 277 275 273 270 267 264
298 299 299 297 299 301 301 300 296 293 293 295 297 298 300 302 305 304 302 302 301 303 299 296 295 290 288 286 285 285 284 282 280 277 273 270 267 264
299 301 302 303 306 303 301 298 295 293 291 293 294 294 298 302 302 301 300 299 297 300 299 293 294 291 291 288 290 288 287 286 283 279 275 271 268 264
301 304 304 306 307 308 304 301 298 295 293 293 291 292 292 294 294 297 297 294 290 289 289 291 296 295 296 294 292 288 286 285 283 280 277 273 269 264
305 303 304 302 305 308 307 305 302 300 301 298 292 289 291 294 295 293 291 291 294 297 297 288 295 302 297 290 288 288 288 287 284 281 278 274 271 267
308 306 304 307 310 311 311 309 306 308 307 303 299 297 295 292 290 284 286 289 293 296 295 298 301 309 302 290 292 296 294 290 288 286 284 279 275 268
309 307 307 312 311 313 313 307 305 307 304 303 302 299 296 295 297 297 292 285 285 282 289 298 293 293 284 291 298 295 290 289 292 289 286 282 277 271
306 307 308 311 313 314 311 306 308 309 304 303 300 300 303 304 302 299 294 286 275 276 282 285 281 282 285 286 292 295 297 295 291 287 284 282 280 274
303 305 307 310 314 311 306 309 311 307 305 303 301 301 302 299 298 296 295 292 288 281 276 275 274 277 276 280 285 291 296 297 289 290 292 290 283 276
310 307 308 308 306 304 306 309 309 305 306 301 301 300 300 299 299 301 303 305 301 297 289 279 277 278 280 282 283 286 289 290 297 301 300 296 290 279
314 306 305 310 313 313 313 314 314 313 310 306 303 302 303 303 303 304 302 301 297 300 306 305 292 283 278 278 281 282 289 297 301 305 307 305 301 297
315 304 310 313 313 315 316 316 315 313 311 308 303 301 302 304 304 304 301 299 298 299 301 305 308 308 304 286 255 276 294 303 307 308 309 310 309 311
309 309 311 312 312 311 310 308 308 309 309 304 301 301 302 301 300 300 301 300 298 299 300 303 306 309 314 316 303 288 304 308 310 313 315 315 311 313
313 310 310 310 309 308 306 306 305 307 306 304 302 301 300 299 298 298 298 299 300 300 302 303 306 310 310 302 297 299 299 305 316 317 318 317 312 314
314 311 309 308 306 304 302 302 302 301 302 302 300 300 299 298 296 296 296 298 300 301 304 306 304 306 300 293 293 303 308 313 314 316 320 322 326 327
311 309 308 305 303 300 299 300 301 300 302 300 300 299 298 297 296 296 296 298 300 301 304 304 306 310 310 305 306 309 314 322 325 322 326 338 336 331
309 307 304 302 298 297 297 298 299 298 298 298 297 298 298 297 296 294 295 298 302 308 312 312 315 319 317 313 313 316 323 332 336 339 341 345 347 351